KN7D Weather Reports


Display with metric or nautical units.
time (UTC)temp
F
wind
direction
speed
MPH
gust
MPH
rain 1hr
in
rain 24hr
in
rain mn
in
humidity
%
barometer
mb
20260508201532 72 215 2.0 9.0 0.00 0.00 0.00 27 1015.1
20260508200026 72 246 1.0 6.0 0.00 0.00 0.00 28 1015.2
20260508194523 71 248 2.0 9.0 0.00 0.00 0.00 31 1015.2
20260508193026 71 205 3.0 6.0 0.00 0.00 0.00 30 1015.4
20260508191520 70 251 3.0 11.0 0.00 0.00 0.00 29 1015.5
20260508190019 71 164 2.0 6.0 0.00 0.00 0.00 33 1015.5
20260508184521 70 264 3.0 10.0 0.00 0.00 0.00 32 1015.7
20260508183015 70 142 3.0 7.0 0.00 0.00 0.00 39 1015.7
20260508181514 70 136 4.0 10.0 0.00 0.00 0.00 38 1015.8
20260508180013 69 163 3.0 7.0 0.00 0.00 0.00 36 1015.8
20260508174524 69 192 2.0 11.0 0.00 0.00 0.00 38 1016.0
20260508173011 69 217 3.0 9.0 0.00 0.00 0.00 42 1016.0
20260508171511 69 148 2.0 7.0 0.00 0.00 0.00 39 1015.9
20260508170009 68 219 0.0 6.0 0.00 0.00 0.00 39 1015.8
20260508164509 68 219 2.0 5.0 0.00 0.00 0.00 41 1015.8
20260508163009 68 219 2.0 5.0 0.00 0.00 0.00 42 1015.9
20260508161505 66 259 0.0 4.0 0.00 0.00 0.00 43 1016.0
20260508160005 67 262 3.0 6.0 0.00 0.00 0.00 43 1015.9
20260508154503 67 323 1.0 3.0 0.00 0.00 0.00 44 1015.8
20260508153103 65 323 0.0 3.0 0.00 0.00 0.00 45 1015.7
20260508151555 63 322 1.0 3.0 0.00 0.00 0.00 45 1015.6
20260508150054 61 322 0.0 3.0 0.00 0.00 0.00 44 1015.6
20260508144553 60 53 2.0 3.0 0.00 0.00 0.00 44 1015.5
20260508143053 59 53 1.0 5.0 0.00 0.00 0.00 45 1015.4
20260508141555 59 53 0.0 2.0 0.00 0.00 0.00 44 1015.3
20260508140044 56 53 0.0 2.0 0.00 0.00 0.00 36 1015.2
20260508134555 53 53 0.0 3.0 0.00 0.00 0.00 30 1015.2
20260508133042 50 53 2.0 3.0 0.00 0.00 0.00 26 1015.1
20260508131539 50 53 1.0 3.0 0.00 0.00 0.00 34 1014.9
20260508130039 49 44 2.0 4.0 0.00 0.00 0.00 38 1014.7
20260508124535 50 44 0.0 2.0 0.00 0.00 0.00 42 1014.6
20260508123033 50 44 2.0 3.0 0.00 0.00 0.00 44 1014.4
20260508121539 50 44 0.0 0.0 0.00 0.00 0.00 43 1014.4
20260508120026 51 44 1.0 3.0 0.00 0.00 0.00 41 1014.1
20260508114525 51 61 1.0 3.0 0.00 0.00 0.00 38 1014.0
20260508113024 51 71 0.0 3.0 0.00 0.00 0.00 39 1013.9
20260508111524 53 98 1.0 6.0 0.00 0.00 0.00 45 1013.9
20260508110023 52 69 1.0 3.0 0.00 0.00 0.00 45 1014.0
20260508104521 53 114 1.0 4.0 0.00 0.00 0.00 48 1014.0
20260508103028 53 111 3.0 6.0 0.00 0.00 0.00 48 1013.8
20260508101521 52 78 2.0 4.0 0.00 0.00 0.00 48 1013.9
20260508100024 51 76 1.0 3.0 0.00 0.00 0.00 43 1013.8
20260508094516 51 49 1.0 2.0 0.00 0.00 0.00 37 1013.7
20260508093014 51 64 1.0 3.0 0.00 0.00 0.00 41 1013.7
20260508091511 52 80 1.0 2.0 0.00 0.00 0.00 39 1013.7
20260508090008 53 80 0.0 1.0 0.00 0.00 0.00 44 1013.6
20260508084505 54 80 0.0 2.0 0.00 0.00 0.00 49 1013.7
20260508083002 56 94 1.0 2.0 0.00 0.00 0.00 49 1013.7
20260508081504 58 94 2.0 6.0 0.00 0.00 0.00 47 1013.7
20260508080001 57 94 1.0 3.0 0.00 0.00 0.00 48 1013.6
20260508074600 56 93 2.0 3.0 0.00 0.00 0.00 49 1013.6
20260508073057 56 93 1.0 2.0 0.00 0.00 0.00 49 1013.6
20260508071557 57 107 0.0 2.0 0.00 0.00 0.00 49 1013.6
20260508070054 58 107 0.0 2.0 0.00 0.00 0.00 47 1013.5
20260508064553 58 105 1.0 6.0 0.00 0.00 0.00 47 1013.5
20260508063055 59 49 1.0 2.0 0.00 0.00 0.00 47 1013.4
20260508061552 59 52 2.0 3.0 0.00 0.00 0.00 46 1013.4
20260508060053 59 49 1.0 3.0 0.00 0.00 0.00 46 1013.4
20260508054545 60 55 2.0 3.0 0.00 0.00 0.00 46 1013.2
20260508053045 61 51 2.0 3.0 0.00 0.00 0.00 44 1013.1
20260508051544 63 51 1.0 3.0 0.00 0.00 0.00 42 1013.1
20260508050046 63 51 2.0 3.0 0.00 0.00 0.00 41 1012.9
20260508044544 63 55 1.0 3.0 0.00 0.00 0.00 42 1013.0
20260508043043 63 60 2.0 3.0 0.00 0.00 0.00 42 1013.0
20260508041542 63 46 2.0 3.0 0.00 0.00 0.00 44 1013.0
20260508040050 62 47 2.0 3.0 0.00 0.00 0.00 45 1012.9
20260508034542 63 67 1.0 3.0 0.00 0.00 0.00 43 1012.9
20260508033042 63 55 2.0 3.0 0.00 0.00 0.00 44 1012.8
20260508031541 63 46 2.0 3.0 0.00 0.00 0.00 44 1012.7
20260508030041 64 49 1.0 2.0 0.00 0.00 0.00 46 1012.6
20260508024548 67 227 1.0 3.0 0.00 0.00 0.00 40 1012.5
20260508023039 71 227 1.0 2.0 0.00 0.00 0.00 39 1012.5
20260508021538 73 227 1.0 2.0 0.00 0.00 0.00 30 1012.4
20260508020037 74 227 0.0 2.0 0.00 0.00 0.00 29 1012.4
20260508014541 74 227 0.0 2.0 0.00 0.00 0.00 27 1012.4
20260508013035 74 237 1.0 4.0 0.00 0.00 0.00 28 1012.3
20260508011536 74 257 1.0 8.0 0.00 0.00 0.00 28 1012.5
20260508010036 75 94 1.0 8.0 0.00 0.00 0.00 27 1012.6
20260508004535 75 188 0.0 4.0 0.00 0.00 0.00 27 1012.6
20260508003032 75 198 2.0 7.0 0.00 0.00 0.00 27 1012.4
20260508001532 76 298 1.0 7.0 0.00 0.00 0.00 27 1012.6
20260508000030 77 14 0.0 4.0 0.00 0.00 0.00 28 1012.9
20260507234526 76 49 1.0 5.0 0.00 0.00 0.00 27 1012.9
20260507233036 74 263 0.0 4.0 0.00 0.00 0.00 29 1013.2
20260507231532 74 263 3.0 6.0 0.00 0.00 0.00 27 1013.2
20260507230019 74 43 3.0 5.0 0.00 0.00 0.00 29 1013.4
20260507224517 75 342 1.0 5.0 0.00 0.00 0.00 28 1013.7
20260507223013 72 312 1.0 3.0 0.00 0.00 0.00 29 1014.0
20260507221514 72 279 1.0 7.0 0.00 0.00 0.00 29 1014.1
20260507220013 71 281 1.0 8.0 0.00 0.00 0.00 29 1014.2
20260507214509 72 257 4.0 8.0 0.00 0.00 0.00 29 1014.2
20260507213008 73 271 3.0 9.0 0.00 0.00 0.00 28 1014.5
20260507211510 72 257 4.0 8.0 0.00 0.00 0.00 28 1014.6
20260507210005 72 221 4.0 8.0 0.00 0.00 0.00 28 1014.7
20260507204503 72 241 3.0 11.0 0.00 0.00 0.00 28 1014.9
20260507203111 72 177 2.0 8.0 0.00 0.00 0.00 28 1014.9